This site uses a module created by best online poker sites.

BSB police log ending Sept. 25, 2013

"09/24/2013","00:19","213CR0023065","BUSINESS CHECK","BUSINESS CHECK","531 S MONTANA ST","",""
"09/24/2013","00:25","213CR0023066","BUSINESS CHECK","BUSINESS CHECK","1400 HARRISON MT LILS CASINO","",""
"09/24/2013","00:30","213CR0023067","BUSINESS CHECK","BUSINESS CHECK","2711 HARRISON TOWN PUMP","",""
"09/24/2013","00:38","213CR0023068","BUSINESS CHECK","BUSINESS CHECK","3700 HARRISON TOWN PUMP","",""
"09/24/2013","00:45","213CR0023069","BUSINESS CHECK","BUSINESS CHECK","1800 MEADOWLARK SHORTYS BAR","",""
"09/24/2013","00:45","213CR0023070","BUSINESS CHECK","BUSINESS CHECK","3878 PAXSON HAPPY ENDINGS","",""
"09/24/2013","00:56","213CR0023071","BUSINESS CHECK","BUSINESS CHECK","2702 WALNUT CRAZEE CAROLS","",""
"09/24/2013","01:26","213CR0023072","CITIZEN AID","CITIZEN AID","14 S CLARK","",""
"09/24/2013","02:11","213CR0023073","ASSIST OTHER AGENCY","ASSIST OTHER AGENCY","I15 MM 149 SB","",""
"09/24/2013","03:06","213CR0023074","ACCIDENT","AGGRAVATED DUI","2800 BLK SILVERBOW BLVD","ARREST(s) MADE",""
"09/24/2013","06:22","213CR0023075","LED BUSINESS","LED BUSINESS","155 W QUARTZ","",""
"09/24/2013","07:13","213CR0023076","MEDICAL - EMERGENCY","MEDICAL - EMERGENCY","208 BADEN ST","",""
"09/24/2013","07:58","213CR0023077","T/S","T/S","WARREN AND COBBAN","",""
"09/24/2013","08:13","213CR0023078","JUVENILE MISC","JUVENILE MISC","************","",""
"09/24/2013","08:14","213CR0023079","T/S","T/S","MAIN AND PLATINUM","",""
"09/24/2013","08:23","213CR0023080","T/S","T/S","GRAND AND GARFIELD","",""
"09/24/2013","08:25","213CR0023081","T/S","T/S","KENNEDY AVE AND DEWEY BLVD","",""
"09/24/2013","08:38","213CR0023082","FIRE- GAS ODOR","FIRE- GAS ODOR","225 S CLARK","",""
"09/24/2013","08:42","213CR0023083","T/S","T/S @ 3800 BLK HARRISON AVE","3800 BLK HARRISON AVE","",""
"09/24/2013","08:53","213CR0023084","T/S","CRIMINAL CONTEMPT","4900 BLK HARRISON AVE","ARREST(s) MADE",""
"09/24/2013","09:27","213CR0023085","T/S","T/S @ WESTERN AND PARK","WESTERN AND PARK","",""
"09/24/2013","09:42","213CR0023086","T/S","T/S @ WESTERN AND PARK ST","WESTERN AND PARK ST","",""
"09/24/2013","09:46","213CR0023087","CIVIL STANDBY","CIVIL STANDBY","515 JAMES ST","",""
"09/24/2013","10:02","213CR0023088","T/S","T/S @ EXCELSIOR AND PARK","EXCELSIOR AND PARK","",""
"09/24/2013","10:07","213CR0023089","CITIZEN AID","CITIZEN AID","1951 GAYLORD","",""
"09/24/2013","10:16","213CR0023090","T/S","CRIMINAL CONTEMPT","PARK AND EXCELSIOR","ARREST(s) MADE",""
"09/24/2013","10:22","213CR0023091","CIVIL PAPER SERVICE","CIVIL PAPER SERVICE","832 S COLORADO ST","",""
"09/24/2013","10:22","213CR0023092","CIVIL PAPER SERVICE","CIVIL PAPER SERVICE","1932 FLORENCE","",""
"09/24/2013","10:29","213CR0023093","CIVIL PAPER SERVICE","CIVIL PAPER SERVICE","424 S DAKOTA","",""
"09/24/2013","10:34","213CR0023094","CIVIL PAPER SERVICE","CIVIL PAPER SERVICE","207 W PARK ST","",""
"09/24/2013","10:42","213CR0023095","T/S","T/S","MAIN AND MERCURY","",""
"09/24/2013","10:52","213CR0023096","CIVIL PAPER SERVICE","CIVIL PAPER SERVICE","517 W GRANITE","",""
"09/24/2013","10:57","213CR0023097","CIVIL PAPER SERVICE","CIVIL PAPER SERVICE","615 1/2 N EXCELSIOR","",""
"09/24/2013","11:05","213CR0023098","CIVIL PAPER SERVICE","CIVIL PAPER SERVICE","608 TRAVONIA","",""
"09/24/2013","11:40","213CR0023099","T/S","T/S","HARRISON AND MOTORVIEW","",""
"09/24/2013","11:44","213CR0023100","T/S","T/S","HARRISON AND 5 MILE RD","",""
"09/24/2013","11:51","213CR0023101","T/S","T/S","HWY 2 AND HARRISON AV","",""
"09/24/2013","11:59","213CR0023102","ALARM - FIRE","ALARM - FIRE","1050 S MONTANA","",""
"09/24/2013","12:03","213CR0023103","STOLEN VEHICLE","STOLEN VEHICLE","111 AIRPORT RD","",""
"09/24/2013","12:04","213CR0023104","CIVIL STANDBY","CIVIL STANDBY","1945 S UTAH","",""
"09/24/2013","12:06","213CR0023105","THEFT","THEFT, ALL OTHERS","","",""
"09/24/2013","12:10","213CR0023106","INFORMATION ONLY","INFORMATION ONLY","1945 S UTAH ST","",""
"09/24/2013","12:13","213CR0023107","T/S","T/S","IDAHO ST AND BROADWAY ST","",""
"09/24/2013","12:33","213CR0023108","ACCIDENT","ACCIDENT","GOLD ST AND MONTANA ST","",""
"09/24/2013","13:02","213CR0023109","CIVIL PAPER SERVICE","CIVIL PAPER SERVICE","68 W BROADWAY","",""
"09/24/2013","13:07","213CR0023110","STOLEN VEHICLE","MOTOR VEHICLE THEFT","521 W PARK ST","ARREST(s) MADE",""
"09/24/2013","13:20","213CR0023111","SUSPICIOUS ACTIVITY","SUSPICIOUS ACTIVITY","100 BLK S MAIN","",""
"09/24/2013","13:26","213CR0023112","LED BUSINESS","LED BUSINESS","155 W QUARTZ","",""
"09/24/2013","13:36","213CR0023113","ALARM - FIRE","ALARM - FIRE","1050 S MONTANA","",""
"09/24/2013","13:36","213CR0023114","ALARM - FIRE","ALARM - FIRE","","",""
"09/24/2013","13:47","213CR0023115","CITIZEN AID","CITIZEN AID","641 W GRANITE","",""
"09/24/2013","14:01","213CR0023116","THEFT","THEFT FROM BUILDINGS","2717 WALNUT ST","",""
"09/24/2013","14:10","213CR0023117","ABANDONED VEHICLE","ABANDONED VEHICLE","SANTA CLAUSE RD","",""
"09/24/2013","14:26","213CR0023118","CIVIL STANDBY","CIVIL STANDBY","1400 HARRISON AVE","",""
"09/24/2013","15:14","213CR0023119","T/S","T/S","FRONT ST AND ATLANTIC ST","",""
"09/24/2013","15:20","213CR0023120","DISTURBANCE","DISTURBANCE","2292 W DRIVE","",""
"09/24/2013","15:20","213CR0023121","CITIZEN AID","CITIZEN AID","I15 MM 99 N BND","",""
"09/24/2013","15:40","213CR0023122","ABANDONED VEHICLE","ABANDONED VEHICLE","412 W BROADWAY","",""
"09/24/2013","15:55","213CR0023123","FIRE - STRUCTURE","FIRE - STRUCTURE","350 N JACKSON","",""
"09/24/2013","16:05","213CR0023124","HARASSMENT","HARASSMENT","631 PLACER ST","",""
"09/24/2013","16:12","213CR0023125","WANTED PERSON","WANTED PERSON","************","",""
"09/24/2013","16:15","213CR0023126","THEFT","THEFT","709 SILVER BOW HOMES","",""
"09/24/2013","16:40","213CR0023127","INFORMATION ONLY","INFORMATION ONLY","1400 BLK SILVER BOW HOMES","",""
"09/24/2013","16:42","213CR0023128","T/S","T/S","400 BLK N MONTANA ST","",""
"09/24/2013","16:52","213CR0023129","ACCIDENT","ACCIDENT","3200 BLK HARRISON AVE","",""
"09/24/2013","17:13","213CR0023130","CIVIL PAPER SERVICE","CIVIL PAPER SERVICE","155 W QUARTZ","",""
"09/24/2013","17:17","213CR0023131","HARASSMENT","HARASSMENT","1000 S MONTANA","",""
"09/24/2013","17:23","213CR0023132","CIVIL STANDBY","CIVIL STANDBY","1960 HARRISON AV","",""
"09/24/2013","17:46","213CR0023133","FRAUD","FRAUD","2632 OTTAWA","",""
"09/24/2013","17:58","213CR0023134","INFORMATION ONLY","INFORMATION ONLY","RED MOUNTAIN","",""
"09/24/2013","18:37","213CR0023135","ASSAULT","ASSAULT","************","",""
"09/24/2013","18:55","213CR0023136","UNWANTED PERSON","UNWANTED PERSON","************","",""
"09/24/2013","19:15","213CR0023137","ALARM - BURGLARY","ALARM - BURGLARY","************","",""
"09/24/2013","19:35","213CR0023138","T/S","T/S","27 E GALENA ST","",""
"09/24/2013","20:06","213CR0023139","SUSPICIOUS ACTIVITY","DRIVING W/OUT VALID D/L","MONTANA ST // ROWE RD","",""
"09/24/2013","20:10","213CR0023140","SUSPICIOUS ACTIVITY","SUSPICIOUS ACTIVITY","2400 CONTINENTAL DRIVE","",""
"09/24/2013","22:03","213CR0023141","MEDICAL - ASSIST","MEDICAL - ASSIST","************","",""
"09/24/2013","22:15","213CR0023142","ATL","ATL","700 BLOCK N MONTANA","",""
"09/24/2013","22:25","213CR0023143","T/S","DUI - (REFUSAL)","ROWE RD AND HOLMES RD","ARREST(s) MADE",""
"09/25/2013","00:37","213CR0023144","DISTURBANCE","DISTURBANCE","1 W PARK ST","",""
"09/25/2013","01:18","213CR0023145","ATL","ATL","521 W PARK","",""
"09/25/2013","01:48","213CR0023146","SUSPICIOUS ACTIVITY","SUSPICIOUS ACTIVITY","PRINCETON AND HANCOCK","",""
"09/25/2013","02:29","213CR0023147","T/S","T/S @ FLORENCE AVE AND WALL ST","FLORENCE AVE AND WALL ST","",""
"09/25/2013","03:10","213CR0023148","MEDICAL - EMERGENCY","MEDICAL - EMERGENCY","2112 GRAND AVE","",""
"09/25/2013","03:19","213CR0023149","MEDICAL - EMERGENCY","MEDICAL - EMERGENCY","626 EVANS AVE","",""
"09/25/2013","06:38","213CR0023150","HIT AND RUN","HIT AND RUN","1900 S MONTANA ST","",""
"09/25/2013","07:53","213CR0023151","T/S","T/S @ AMHERST ST AND FARRAGUT AVE","AMHERST ST AND FARRAGUT AVE","",""

BSB police log ending Sept. 24, 2013

"09/23/2013","00:07","213CR0022965","STOLEN VEHICLE","MOTOR VEHICLE THEFT","2702 WALNUT CRAZEE CAROLS","ARREST(s) MADE",""
"09/23/2013","01:09","213CR0022966","DISTURBANCE","DISTURBANCE","1041 S UTAH","",""
"09/23/2013","01:25","213CR0022967","SUSPICIOUS ACTIVITY","OBSTRUCTING A PEACE OFFICER","ELM AND CAROLINA","ARREST(s) MADE",""
"09/23/2013","02:32","213CR0022968","UNWANTED PERSON","UNWANTED PERSON","************","",""
"09/23/2013","02:36","213CR0022969","MEDICAL - EMERGENCY","MEDICAL - EMERGENCY","4 GLADSTONE TERRACE","",""
"09/23/2013","02:54","213CR0022970","PROWLER","PROWLER","3023 HECLA","",""
"09/23/2013","06:46","213CR0022971","MEDICAL - EMERGENCY","MEDICAL - EMERGENCY","1959 PRINCETON","",""
"09/23/2013","07:29","213CR0022972","THEFT","THEFT","3499 HARRISON AVE","",""
"09/23/2013","07:48","213CR0022973","INFORMATION ONLY","INFORMATION ONLY","1011 BOSSARD","",""
"09/23/2013","07:51","213CR0022974","CIVIL PAPER SERVICE","CIVIL PAPER SERVICE","832 COLORADO","",""
"09/23/2013","08:00","213CR0022975","T/S","T/S","CONTINENTAL DR AND KOSSUTH ST","",""
"09/23/2013","08:01","213CR0022976","T/S","T/S","HARRISON AND COBBAN","",""
"09/23/2013","08:05","213CR0022977","T/S","T/S","LOWELL AND COBBAN","",""
"09/23/2013","08:18","213CR0022978","T/S","T/S","CONTINENTAL DR AND STATE ST","",""
"09/23/2013","08:20","213CR0022979","T/S","T/S","HARRISON AND C ST","",""
"09/23/2013","08:28","213CR0022980","LED BUSINESS","LED BUSINESS","155 W QUARTZ","",""
"09/23/2013","08:29","213CR0022981","ASSIST OTHER AGENCY","ASSIST OTHER AGENCY","155 W GRANITE","",""
"09/23/2013","08:30","213CR0022982","T/S","T/S","ALBANY AND BURLINGTON","",""
"09/23/2013","08:36","213CR0022983","ASSIST OTHER AGENCY","ASSIST OTHER AGENCY","155 W GRANITE","",""
"09/23/2013","08:45","213CR0022984","T/S","T/S","AMHERST AND SHERMAN","",""
"09/23/2013","08:46","213CR0022986","CIVIL PAPER SERVICE","CIVIL PAPER SERVICE","201 HOBSON #24","",""
"09/23/2013","08:46","213CR0022985","T/S","T/S","","",""
"09/23/2013","08:58","213CR0022987","CIVIL PAPER SERVICE","CIVIL PAPER SERVICE","4800 HARRISON #11","",""
"09/23/2013","09:06","213CR0022988","CIVIL PAPER SERVICE","CIVIL PAPER SERVICE","2135 S DRIVE","",""
"09/23/2013","09:11","213CR0022989","CIVIL PAPER SERVICE","CIVIL PAPER SERVICE","2700 HARRISON AVE DAYS INN","",""
"09/23/2013","09:29","213CR0022990","ASSAULT","ASSAULT","************","",""
"09/23/2013","09:37","213CR0022991","HIT AND RUN","HIT AND RUN","","",""
"09/23/2013","09:42","213CR0022992","MEDICAL - EMERGENCY","MEDICAL - EMERGENCY","630 SAMPSON","",""
"09/23/2013","09:45","213CR0022993","INTIMIDATION","PRIVACY IN COMMUNICATION","345 ANACONDA RD","",""
"09/23/2013","09:50","213CR0022994","THEFT","CRIMINAL MISCHIEF","5050 HARRISON AVE UNIT 10","",""
"09/23/2013","09:51","213CR0022995","FIRE - OTHER","FIRE - OTHER","RR TRACKS AREA CO SHOP","",""
"09/23/2013","10:43","213CR0022996","T/S","T/S","NOYSE AND HARRISON","",""
"09/23/2013","10:49","213CR0022997","THEFT","THEFT OF VEHICLE PARTS/ACCESSO","1401 IOWA AVE","",""
"09/23/2013","11:14","213CR0022998","T/S","T/S","KAW AVE AND CASEY ST","",""
"09/23/2013","11:46","213CR0022999","CIVIL PAPER SERVICE","CIVIL PAPER SERVICE","424 S DAKOTA","",""
"09/23/2013","11:50","213CR0023000","ASSIST OTHER AGENCY","ASSIST OTHER AGENCY","11 NASSEAU","",""
"09/23/2013","12:01","213CR0023001","HARASSMENT","HARASSMENT","3650 FAIRMONT RD","",""
"09/23/2013","12:04","213CR0023002","HARASSMENT","HARASSMENT","1124 NEVADA","",""
"09/23/2013","12:23","213CR0023003","THEFT","THEFT, SHOPLIFT","1000 GRIZZLY TRAIL","",""
"09/23/2013","12:28","213CR0023004","T/S","T/S","THIRD ST AND UTAH AVE","",""
"09/23/2013","12:34","213CR0023005","SUICIDE ATTEMPT/THREAT","SUICIDE ATTEMPT/THREAT","************","",""
"09/23/2013","12:35","213CR0023006","JUVENILE MISC","TRUANCY","2600 GRAND AVE","ARREST(s) MADE",""
"09/23/2013","12:45","213CR0023007","T/S","T/S","MOTORVIEW RD AND HARRISON AVE","",""
"09/23/2013","12:55","213CR0023008","T/S","T/S","MAIN ST AND SUMMIT ST","",""
"09/23/2013","13:03","213CR0023009","MEDICAL - EMERGENCY","MEDICAL - EMERGENCY","430 S DAKOTA","",""
"09/23/2013","13:08","213CR0023010","T/S","T/S","MOTORVIEW RD AND HARRISON AVE","",""
"09/23/2013","13:17","213CR0023011","INFORMATION ONLY","INFORMATION ONLY","","",""
"09/23/2013","13:26","213CR0023012","SUSPICIOUS ACTIVITY","SUSPICIOUS ACTIVITY","ALUMINUM AND UTAH","",""
"09/23/2013","13:27","213CR0023013","T/S","T/S","WESTERN AND PARK","",""
"09/23/2013","13:28","213CR0023014","ASSAULT","ASSAULT","************","",""
"09/23/2013","13:53","213CR0023015","SUSPICIOUS ACTIVITY","SUSPICIOUS ACTIVITY","BIG BUTTE","",""
"09/23/2013","13:56","213CR0023016","T/S","CRIMINAL CONTEMPT","EXCELSIOR AVE AND BROADWAY ST","ARREST(s) MADE",""
"09/23/2013","14:07","213CR0023017","FOUND PROPERTY","FOUND PROPERTY","************","",""
"09/23/2013","14:15","213CR0023018","VEHICLE INSPECTION","VEHICLE INSPECTION","2540 HARVARD","",""
"09/23/2013","14:37","213CR0023019","SUSPICIOUS ACTIVITY","SUSPICIOUS ACTIVITY","EMMETT AV AND DIAMOND ST","",""
"09/23/2013","15:03","213CR0023020","DRUGS","DRUGS","************","",""
"09/23/2013","15:09","213CR0023021","THEFT","THEFT","25 W FRONT ST","",""
"09/23/2013","15:10","213CR0023022","ATL","ATL","845 S WYOMING ST","",""
"09/23/2013","15:16","213CR0023023","HARASSMENT","PRIVACY IN COMMUNICATION","2123 GEORGE ST","",""
"09/23/2013","15:23","213CR0023024","MEDICAL - EMERGENCY","MEDICAL - EMERGENCY","1116 NEVADA","",""
"09/23/2013","15:29","213CR0023025","T/S","T/S","MAIN ST AND PLATINUM ST","",""
"09/23/2013","15:34","213CR0023026","T/S","T/S","MONTANA ST AND GOLD","",""
"09/23/2013","15:45","213CR0023027","T/S","T/S @ UTAH AVE AND PLATINUM ST","UTAH AVE AND PLATINUM ST","",""
"09/23/2013","15:45","213CR0023028","HARASSMENT","HARASSMENT","2322 PINE ST","",""
"09/23/2013","15:50","213CR0023029","T/S","T/S","UTAH AVE AND ALUMINUM ST","",""
"09/23/2013","16:08","213CR0023031","LED BUSINESS","LED BUSINESS","225 ALASKA","",""
"09/23/2013","16:21","213CR0023033","ASSIST OTHER AGENCY","ASSIST OTHER AGENCY","DUNDEE ST AND HARRISON AVE","",""
"09/23/2013","16:21","213CR0023032","T/S","T/S @ ","","",""
"09/23/2013","16:27","213CR0023034","T/S","T/S @ MAIN ST AND PORPHYRY ST","MAIN ST AND PORPHYRY ST","",""
"09/23/2013","16:31","213CR0023035","FIRE- GAS ODOR","FIRE- GAS ODOR","3928 WYNNE AVE #1","",""
"09/23/2013","16:34","213CR0023036","CIVIL STANDBY","CIVIL STANDBY","1951 CAROLINA AVE","",""
"09/23/2013","16:46","213CR0023037","FOUND PROPERTY","FOUND PROPERTY","************","",""
"09/23/2013","16:48","213CR0023038","THEFT","THEFT","1501 OREGON AVE","",""
"09/23/2013","17:11","213CR0023039","DISTURBANCE","DISTURBANCE","WARREN AND CASEY","",""
"09/23/2013","17:19","213CR0023040","INFORMATION ONLY","INFORMATION ONLY","820 HORNET","",""
"09/23/2013","17:26","213CR0023041","WANTED PERSON","WANTED PERSON","************","",""
"09/23/2013","17:34","213CR0023042","THEFT","THEFT","","",""
"09/23/2013","17:44","213CR0023043","SUSPICIOUS ACTIVITY","SUSPICIOUS ACTIVITY","ELM ST APARTMENTS","",""
"09/23/2013","17:47","213CR0023044","ALARM - BURGLARY","ALARM - BURGLARY","************","",""
"09/23/2013","17:57","213CR0023046","ANIMAL COMPLAINT","ANIMAL COMPLAINT","1315 SUNSET","",""
"09/23/2013","17:58","213CR0023045","WANTED PERSON","CRIMINAL CONTEMPT","837 ZARELDA ST","ARREST(s) MADE",""
"09/23/2013","18:09","213CR0023047","UNKNOWN PROBLEM","UNKNOWN PROBLEM","10 BLK W PARK","",""
"09/23/2013","18:38","213CR0023048","MEDICAL - EMERGENCY","MEDICAL - EMERGENCY","ALABAMA AND PARK","",""
"09/23/2013","19:25","213CR0023050","T/S","T/S @ ELIZABETH WARREN AND BLACK TAI","ELIZABETH WARREN AND BLACK TAI","",""
"09/23/2013","19:35","213CR0023051","SUSPICIOUS ACTIVITY","SUSPICIOUS ACTIVITY","114 GRANDVIEW DR","",""
"09/23/2013","19:48","213CR0023052","SUSPICIOUS ACTIVITY","SUSPICIOUS ACTIVITY","905 GAYLORD ST","",""
"09/23/2013","20:20","213CR0023053","WANTED PERSON","WANTED PERSON","************","",""
"09/23/2013","20:46","213CR0023054","DISTURBANCE","DISTURBANCE","400 S CLARK ST","",""
"09/23/2013","21:18","213CR0023055","DISTURBANCE","DISTURBANCE","9 ORPHAN GIRL","",""
"09/23/2013","21:21","213CR0023056","MEDICAL - EMERGENCY","MEDICAL - EMERGENCY","1620 ELM ST","",""
"09/23/2013","21:29","213CR0023057","ATL","ATL","DEWEY BLVD AND ROWE RD","",""
"09/23/2013","22:53","213CR0023058","MEDICAL - EMERGENCY","MEDICAL - EMERGENCY","100 GARDENS WAY #158","",""
"09/23/2013","22:55","213CR0023059","SUSPICIOUS ACTIVITY","SUSPICIOUS ACTIVITY","1674 BOSSARD RD","",""
"09/23/2013","22:58","213CR0023060","TRAFFIC HAZARD","TRAFFIC HAZARD","FRONT AND HARRISON","",""
"09/23/2013","23:16","213CR0023061","UNWANTED PERSON","UNWANTED PERSON","************","",""
"09/23/2013","23:25","213CR0023062","T/S","T/S","FORD WY AND ELIZ WARREN","",""
"09/23/2013","23:32","213CR0023063","UNWANTED PERSON","UNWANTED PERSON","************","",""
"09/23/2013","23:59","213CR0023064","CITIZEN AID","CITIZEN AID","1375 JOY LANE","",""
"09/24/2013","00:19","213CR0023065","BUSINESS CHECK","BUSINESS CHECK","531 S MONTANA ST","",""
"09/24/2013","00:25","213CR0023066","BUSINESS CHECK","BUSINESS CHECK","1400 HARRISON MT LILS CASINO","",""
"09/24/2013","00:30","213CR0023067","BUSINESS CHECK","BUSINESS CHECK","2711 HARRISON TOWN PUMP","",""
"09/24/2013","00:38","213CR0023068","BUSINESS CHECK","BUSINESS CHECK","3700 HARRISON TOWN PUMP","",""
"09/24/2013","00:45","213CR0023069","BUSINESS CHECK","BUSINESS CHECK","1800 MEADOWLARK SHORTYS BAR","",""
"09/24/2013","00:45","213CR0023070","BUSINESS CHECK","BUSINESS CHECK","3878 PAXSON HAPPY ENDINGS","",""
"09/24/2013","00:56","213CR0023071","BUSINESS CHECK","BUSINESS CHECK","2702 WALNUT CRAZEE CAROLS","",""
"09/24/2013","01:26","213CR0023072","CITIZEN AID","CITIZEN AID","14 S CLARK","",""
"09/24/2013","02:11","213CR0023073","ASSIST OTHER AGENCY","ASSIST OTHER AGENCY","I15 MM 149 SB","",""
"09/24/2013","03:06","213CR0023074","ACCIDENT","AGGRAVATED DUI","2800 BLK SILVERBOW BLVD","ARREST(s) MADE",""
"09/24/2013","06:22","213CR0023075","LED BUSINESS","LED BUSINESS","155 W QUARTZ","",""
"09/24/2013","07:13","213CR0023076","MEDICAL - EMERGENCY","MEDICAL - EMERGENCY","208 BADEN ST","",""
"09/24/2013","07:58","213CR0023077","T/S","T/S @ WARREN AND COBBAN","WARREN AND COBBAN","",""

BSB police log ending Sept. 23, 2013

"09/20/2013","00:30","213CR0022692","T/S","T/S","LEXINGTON AVE AND HOBSON ST","",""
"09/20/2013","01:14","213CR0022693","ATL","ATL","BUTTE PRE RELEASE","",""
"09/20/2013","01:28","213CR0022694","WELFARE CHECK","WELFARE CHECK","501 W GRANITE","",""
"09/20/2013","01:52","213CR0022695","HIT AND RUN","AGGRAVATED DUI","100 BLK S MAIN","ARREST(s) MADE",""
"09/20/2013","01:56","213CR0022696","T/S","T/S","","",""
"09/20/2013","02:03","213CR0022697","ILLEGAL SHOOTING","ILLEGAL SHOOTING","10 BLK S MONTANA","",""
"09/20/2013","02:04","213CR0022698","ACCIDENT","ACCIDENT","I15 MM 123 SB","",""
"09/20/2013","03:13","213CR0022699","HIT AND RUN","HIT AND RUN","1925 ADAMS","",""
"09/20/2013","03:59","213CR0022700","DISTURBANCE","DISTURBANCE","2825 FARRAGUT","",""
"09/20/2013","04:11","213CR0022701","DISTURBANCE","DISTURBANCE","1706 WHITMAN","",""
"09/20/2013","04:39","213CR0022702","BUSINESS CHECK","BUSINESS CHECK","1324 HARRISON AVE","",""
"09/20/2013","07:48","213CR0022703","THEFT","THEFT","4655 HARRISON","",""
"09/20/2013","08:07","213CR0022704","T/S","T/S","PLATINUM AND DAKOTA","",""
"09/20/2013","08:51","213CR0022705","CIVIL PAPER SERVICE","CIVIL PAPER SERVICE","1020 MARYLAND #B","",""
"09/20/2013","08:52","213CR0022706","CIVIL PAPER SERVICE","CIVIL PAPER SERVICE","1515 OREGON #210","",""
"09/20/2013","09:01","213CR0022707","CIVIL PAPER SERVICE","CIVIL PAPER SERVICE","1103 NEVADA","",""
"09/20/2013","09:02","213CR0022708","INTOXICATED PERSON","INTOXICATED PERSON","FIRST ST AND UTAH AVE","",""
"09/20/2013","09:07","213CR0022709","CIVIL PAPER SERVICE","CIVIL PAPER SERVICE","2211 ELM","",""
"09/20/2013","09:08","213CR0022710","CIVIL PAPER SERVICE","CIVIL PAPER SERVICE","960 LEWISHON","",""
"09/20/2013","09:16","213CR0022711","LED BUSINESS","LED BUSINESS","155 W GRANITE","",""
"09/20/2013","09:20","213CR0022712","CIVIL PAPER SERVICE","CIVIL PAPER SERVICE","737 MARYLAND","",""
"09/20/2013","09:22","213CR0022713","CIVIL PAPER SERVICE","CIVIL PAPER SERVICE","1435 MOTORVIEW","",""
"09/20/2013","09:27","213CR0022714","CIVIL PAPER SERVICE","CIVIL PAPER SERVICE","608 TRAVONIA","",""
"09/20/2013","09:27","213CR0022715","CIVIL PAPER SERVICE","CIVIL PAPER SERVICE","1005 S COLORADO ST","",""
"09/20/2013","09:33","213CR0022716","MEDICAL - EMERGENCY","MEDICAL - EMERGENCY","1620 ELM ST","",""
"09/20/2013","09:37","213CR0022717","CIVIL PAPER SERVICE","CIVIL PAPER SERVICE","2925 MOULTON","",""
"09/20/2013","09:37","213CR0022718","CIVIL PAPER SERVICE","CIVIL PAPER SERVICE","339 PASSMORE CANYON RD","",""
"09/20/2013","09:41","213CR0022719","CIVIL PAPER SERVICE","CIVIL PAPER SERVICE","1826 HARRISON AVE","",""
"09/20/2013","09:46","213CR0022720","HARASSMENT","VIOLATION OF PROTECTION ORDER","1951 CAROLINA ST","",""
"09/20/2013","09:52","213CR0022721","CIVIL PAPER SERVICE","CIVIL PAPER SERVICE","2325 PRINCETON","",""
"09/20/2013","09:58","213CR0022723","ASSAULT","ASSAULT","************","",""
"09/20/2013","09:58","213CR0022722","CIVIL PAPER SERVICE","CIVIL PAPER SERVICE","1435 MOTORVIEW","",""
"09/20/2013","10:05","213CR0022724","CIVIL PAPER SERVICE","CIVIL PAPER SERVICE","500 COBBAN","",""
"09/20/2013","10:10","213CR0022725","CIVIL PAPER SERVICE","CIVIL PAPER SERVICE","1317 CASEY","",""
"09/20/2013","10:19","213CR0022726","MEDICAL - EMERGENCY","MEDICAL - EMERGENCY","701 DEWEY BLVD","",""
"09/20/2013","10:19","213CR0022727","FRAUD","FRAUD","3220 HARRISON","",""
"09/20/2013","10:31","213CR0022728","T/S","T/S","1400 BLK DEWEY BLVD","",""
"09/20/2013","10:39","213CR0022729","CIVIL PAPER SERVICE","CIVIL PAPER SERVICE","4800 HARRISON #15","",""
"09/20/2013","11:04","213CR0022730","WELFARE CHECK","WELFARE CHECK","1202 SILVER BOW HOMES","",""
"09/20/2013","11:06","213CR0022731","ALARM - FIRE","ALARM - FIRE","401 S WYOMING","",""
"09/20/2013","11:08","213CR0022732","HARASSMENT","HARASSMENT","846 W MERCURY","",""
"09/20/2013","11:12","213CR0022733","ASSIST OTHER AGENCY","ASSIST OTHER AGENCY","105 RAMPART #215","",""
"09/20/2013","11:21","213CR0022734","DETENTION BUSINESS","DETENTION BUSINESS","************","",""
"09/20/2013","11:27","213CR0022735","STOLEN VEHICLE","STOLEN VEHICLE","1960 WALNUT ST","",""
"09/20/2013","11:30","213CR0022736","VANDALISM/CRIMINAL MISCHIEF","CRIMINAL MISCHIEF","1103 LEWISOHN","",""
"09/20/2013","11:45","213CR0022737","LED BUSINESS","LED BUSINESS","225 N ALASKA","",""
"09/20/2013","12:24","213CR0022738","MEDICAL - EMERGENCY","MEDICAL - EMERGENCY","1009 S DAKOTA","",""
"09/20/2013","12:36","213CR0022739","HARASSMENT","HARASSMENT","3901 HARRISON AVE","",""
"09/20/2013","13:06","213CR0022740","SUSPICIOUS ACTIVITY","SUSPICIOUS ACTIVITY","2400 HARRISON","",""
"09/20/2013","13:26","213CR0022741","T/S","T/S","HARRISON AND MAJORS","",""
"09/20/2013","13:31","213CR0022742","INTIMIDATION","INTIMIDATION","1504 ELM ST","",""
"09/20/2013","13:43","213CR0022743","FRAUD","FRAUD","225 N ALASKA","",""
"09/20/2013","14:05","213CR0022744","T/S","T/S","FRONT ST AND UTAH ST","",""
"09/20/2013","14:23","213CR0022745","UNWANTED PERSON","UNWANTED PERSON","************","",""
"09/20/2013","14:34","213CR0022746","ACCIDENT","ACCIDENT","ALUMINUM ST AND MONTANA ST","",""
"09/20/2013","14:44","213CR0022747","LED BUSINESS","LED BUSINESS","","",""
"09/20/2013","14:48","213CR0022748","T/S","T/S","MAIN AND PLATINUM","",""
"09/20/2013","14:56","213CR0022749","MEDICAL - EMERGENCY","MEDICAL - EMERGENCY","204 NASSEU","",""
"09/20/2013","14:59","213CR0022750","SUSPICIOUS ACTIVITY","SUSPICIOUS ACTIVITY","3100 HARRISON AVE","",""
"09/20/2013","15:09","213CR0022753","WELFARE CHECK","WELFARE CHECK","3400 HILL AVE APT 1104","",""
"09/20/2013","15:13","213CR0022751","HIT AND RUN","HIT AND RUN","GRANITE AND IDAHO","",""
"09/20/2013","15:14","213CR0022752","CIVIL PAPER SERVICE","CIVIL PAPER SERVICE","1826 HARRISON AVE","",""
"09/20/2013","15:21","213CR0022754","SUSPICIOUS ACTIVITY","SUSPICIOUS ACTIVITY","3901 HARRISON AVE","",""
"09/20/2013","15:24","213CR0022756","ASSAULT","ASSAULT","************","",""
"09/20/2013","15:25","213CR0022755","DISTURBANCE","ASSAULT WITH WEAPON","1400 BLK HARRISON AVE","ARREST(s) MADE",""
"09/20/2013","15:42","213CR0022757","LED BUSINESS","LED BUSINESS","1110 SILVER BOW HOMES","",""
"09/20/2013","16:38","213CR0022758","T/S","T/S @ PLATINUM AND UTAH","PLATINUM AND UTAH","",""
"09/20/2013","17:07","213CR0022759","CIVIL STANDBY","CIVIL STANDBY","655 W GRANITE","",""
"09/20/2013","17:13","213CR0022760","INFORMATION ONLY","INFORMATION ONLY","305 GALAXY DRIVE/BEHIND RESIDE","",""
"09/20/2013","17:17","213CR0022761","CIVIL PAPER SERVICE","CIVIL PAPER SERVICE","225 N ALASKA","",""
"09/20/2013","17:27","213CR0022762","JUVENILE MISC","JUVENILE MISC","************","",""
"09/20/2013","17:58","213CR0022763","THEFT","THEFT","1812 GAYLORD","",""
"09/20/2013","18:00","213CR0022764","HARASSMENT","DISORDERLY CONDUCT","303 S IDAHO ST","ARREST(s) MADE",""
"09/20/2013","18:16","213CR0022765","BUSINESS CHECK","POSSESS DRUG PARAPHERNALIA","1370 HARRISON AVE","ARREST(s) MADE",""
"09/20/2013","18:20","213CR0022766","JUVENILE MISC","JUVENILE MISC","************","",""
"09/20/2013","18:29","213CR0022767","UNWANTED PERSON","PFMA - MINOR INJ/PHYSICAL CONT","1021 GAYLORD ST","",""
"09/20/2013","18:36","213CR0022768","DISTURBANCE","DISTURBANCE","600 BLK W GRANITE","",""
"09/20/2013","18:44","213CR0022769","VANDALISM/CRIMINAL MISCHIEF","CRIMINAL MISCHIEF","2102 WALNUT ST","",""
"09/20/2013","18:48","213CR0022770","JUVENILE MISC","JUVENILE MISC","************","",""
"09/20/2013","20:14","213CR0022772","T/S","T/S","WYOMING ST AND SECOND ST","",""
"09/20/2013","20:18","213CR0022773","OPEN BUILDING","OPEN BUILDING","1003 S MONTANA ST","",""
"09/20/2013","21:26","213CR0022774","DISTURBANCE","DISTURBANCE","401 S WYOMING ST","",""
"09/20/2013","21:35","213CR0022775","WANTED PERSON","WANTED PERSON","************","",""
"09/20/2013","21:43","213CR0022776","T/S","T/S","HARRISON AND B ST","",""
"09/20/2013","21:47","213CR0022777","ATL","DUI DRUGS OR ALCOHOL","SECOND AND SHIELDS","ARREST(s) MADE",""
"09/20/2013","21:49","213CR0022778","HIT AND RUN","HIT AND RUN","345 S MAIN ST","",""
"09/20/2013","22:01","213CR0022779","JUVENILE MISC","POSSESS ALCOHOL OR INTOXICANT","3205 AGUSTA","ARREST(s) MADE",""
"09/20/2013","22:03","213CR0022780","MEDICAL - EMERGENCY","MEDICAL - EMERGENCY","","",""
"09/20/2013","22:10","213CR0022781","ATL","ATL","3400 BLK HARRISON","",""
"09/20/2013","22:19","213CR0022782","DISTURBANCE","DISTURBANCE","2900 S MONTANA ST #9","",""
"09/20/2013","22:39","213CR0022783","UNWANTED PERSON","UNWANTED PERSON","************","",""
"09/20/2013","23:02","213CR0022784","WANTED PERSON","WANTED PERSON","************","",""
"09/20/2013","23:39","213CR0022785","SUICIDE ATTEMPT/THREAT","SUICIDE ATTEMPT/THREAT","************","",""
"09/20/2013","23:45","213CR0022786","VANDALISM/CRIMINAL MISCHIEF","CRIMINAL MISCHIEF","3901 HARRISON WAL MART","",""
"09/20/2013","23:54","213CR0022787","T/S","T/S","MONTANA AND GOLD","",""
"09/21/2013","00:01","213CR0022788","INTOXICATED PERSON","INTOXICATED PERSON","400 BLK S MAIN","",""
"09/21/2013","00:09","213CR0022789","T/S","T/S","GOLD AND MAIN ST","",""
"09/21/2013","00:13","213CR0022790","MEDICAL - EMERGENCY","MEDICAL - EMERGENCY","100 SHIRLEY WAY","",""
"09/21/2013","00:28","213CR0022791","JUVENILE MISC","JUVENILE MISC","************","",""
"09/21/2013","00:29","213CR0022792","SUSPICIOUS ACTIVITY","SUSPICIOUS ACTIVITY","ARIZONA ST AND E FRONT ST","",""
"09/21/2013","00:31","213CR0022793","DISTURBANCE-NOISE","DISTURBANCE-NOISE","1411 BROWNING","",""
"09/21/2013","00:34","213CR0022794","MEDICAL - EMERGENCY","MEDICAL - EMERGENCY","456 1/2 N IDAHO","",""
"09/21/2013","01:13","213CR0022795","T/S","DUI - (REFUSAL)","MONTANA AND PORPHRY","ARREST(s) MADE",""
"09/21/2013","01:17","213CR0022796","DISTURBANCE","DISTURBANCE","1700 HARRISON MR EDS SALOON","",""
"09/21/2013","01:23","213CR0022797","ALL OTHER","ALL OTHER","5 MILE RD AND HARRISON AVE","",""
"09/21/2013","01:27","213CR0022798","BUSINESS CHECK","BUSINESS CHECK","541 S MONTANA SPUD MCGEES","",""
"09/21/2013","01:46","213CR0022799","UNWANTED PERSON","UNWANTED PERSON","************","",""
"09/21/2013","01:47","213CR0022800","T/S","AGGRAVATED DUI","MONTANA AND PARK","ARREST(s) MADE",""
"09/21/2013","01:58","213CR0022801","T/S","AGGRAVATED DUI","HARRISON AND CORRAL RD","ARREST(s) MADE",""
"09/21/2013","01:59","213CR0022802","DISTURBANCE","DISTURBANCE","I90 MM 112 WB","",""
"09/21/2013","02:17","213CR0022803","SUSPICIOUS ACTIVITY","SUSPICIOUS ACTIVITY","225 S IDAHO","",""
"09/21/2013","02:24","213CR0022804","DISTURBANCE","DISTURBANCE","10 BLK N MAIN","",""
"09/21/2013","02:49","213CR0022805","DISTURBANCE","DISTURBANCE","PERKINS RESTAURANT","",""
"09/21/2013","03:32","213CR0022806","LED CRASH","LED CRASH","155 W QUARTZ","",""
"09/21/2013","03:46","213CR0022807","DISTURBANCE","DISTURBANCE","313 W QUARTZ","",""
"09/21/2013","03:54","213CR0022808","DISTURBANCE-NOISE","DISTURBANCE-NOISE","201 HOBSON #5","",""
"09/21/2013","03:58","213CR0022809","ALARM - BURGLARY","ALARM - BURGLARY","************","",""
"09/21/2013","04:18","213CR0022810","DISTURBANCE","DISORDERLY CONDUCT","313 W QUARTZ","ARREST(s) MADE",""
"09/21/2013","04:34","213CR0022811","SUSPICIOUS ACTIVITY","SUSPICIOUS ACTIVITY","2426 LOCUST","",""
"09/21/2013","05:14","213CR0022812","PARKING COMPLAINT","PARKING COMPLAINT","10 BLK W PARK","",""
"09/21/2013","05:30","213CR0022813","ATL","ATL","631 1/2 S IDAHO","",""
"09/21/2013","05:38","213CR0022814","SUSPICIOUS ACTIVITY","SUSPICIOUS ACTIVITY","FRONT AND HARRISON","",""
"09/21/2013","06:13","213CR0022815","UNWANTED PERSON","CRIMINAL TRESPASS TO PROPERTY","1324 HARRISON AVE","ARREST(s) MADE",""
"09/21/2013","08:39","213CR0022816","JUVENILE RUNAWAY","UNGOVERNABLE JUVENILE","1205 DEWEY","ARREST(s) MADE",""
"09/21/2013","08:56","213CR0022817","T/S","T/S @ DEWEY AND HILL","DEWEY AND HILL","",""
"09/21/2013","09:02","213CR0022818","WELFARE CHECK","WELFARE CHECK","306 S EXCELSIOR","",""
"09/21/2013","09:21","213CR0022819","ANIMAL COMPLAINT","ANIMAL COMPLAINT","CONTINENTAL DR // WAGON","",""
"09/21/2013","09:31","213CR0022820","UNWANTED PERSON","UNWANTED PERSON","************","",""
"09/21/2013","09:46","213CR0022821","ALARM - BURGLARY","ALARM - BURGLARY","************","",""
"09/21/2013","10:31","213CR0022822","MEDICAL - EMERGENCY","MEDICAL - EMERGENCY","1205 S MONTANA","",""
"09/21/2013","10:56","213CR0022823","T/S","T/S","1000 BLK W PARK","",""
"09/21/2013","11:11","213CR0022824","DISTURBANCE","DISTURBANCE","400 S CLARK ST","",""
"09/21/2013","11:24","213CR0022825","CITIZEN AID","CITIZEN AID","1641 GRAND AVE","",""
"09/21/2013","11:32","213CR0022826","ALL OTHER","ALL OTHER","400 S CLARK ST","",""
"09/21/2013","11:37","213CR0022827","VANDALISM/CRIMINAL MISCHIEF","VANDALISM/CRIMINAL MISCHIEF","1801 SILVER BOW HOMES","",""
"09/21/2013","11:49","213CR0022828","LED BUSINESS","LED BUSINESS","MONTANA TECH HYPER","",""
"09/21/2013","12:16","213CR0022829","THEFT","THEFT","1647 B ST","",""
"09/21/2013","12:19","213CR0022830","THEFT","THEFT","2660 S MONTANA","",""
"09/21/2013","12:21","213CR0022831","FIRE - OTHER","FIRE - OTHER","BLACKTAIL LOOP","",""
"09/21/2013","12:34","213CR0022832","T/S","CRIM SALE OF DANGEROUS DRUGS","700 BLK S MAIN ST","ARREST(s) MADE",""
"09/21/2013","12:44","213CR0022833","PRIVACY IN COMMUNICATIONS","PRIVACY IN COMMUNICATIONS","************","",""
"09/21/2013","12:48","213CR0022834","MEDICAL - EMERGENCY","MEDICAL - EMERGENCY","100 GARDEN WAY","",""
"09/21/2013","12:54","213CR0022835","WELFARE CHECK","WELFARE CHECK","2939 BUSCH ST","",""
"09/21/2013","14:00","213CR0022836","THEFT","THEFT FROM MOTOR VEHICLE","CIVIC CENTER PARKING LOT","",""
"09/21/2013","14:09","213CR0022837","ACCIDENT","ACCIDENT","3900 BLK PAXSON AVE","",""
"09/21/2013","15:10","213CR0022839","T/S","T/S","ARIZONA ST // MERCURY ST","",""
"09/21/2013","15:15","213CR0022840","WANTED PERSON","CRIMINAL CONTEMPT","2084 HARRISON AV","ARREST(s) MADE",""
"09/21/2013","15:34","213CR0022841","FIRE- GAS ODOR","FIRE- GAS ODOR","1335 IOWA","",""
"09/21/2013","15:42","213CR0022842","SUSPICIOUS ACTIVITY","SUSPICIOUS ACTIVITY","3883 HARRISON/MILE HIGH DODGE","",""
"09/21/2013","15:44","213CR0022843","SUICIDE ATTEMPT/THREAT","SUICIDE ATTEMPT/THREAT","************","",""
"09/21/2013","16:05","213CR0022844","SUSPICIOUS ACTIVITY","SUSPICIOUS ACTIVITY","1341 HARRISON AVE","",""
"09/21/2013","16:09","213CR0022845","MISSING PERSON","MISSING PERSON","************","",""
"09/21/2013","16:16","213CR0022846","HIT AND RUN","HIT AND RUN, UNATTENDED VEHICL","2201 SILVER BOW BVLD","",""
"09/21/2013","16:24","213CR0022847","MEDICAL - EMERGENCY","MEDICAL - EMERGENCY","4800 HARRISON AVE #23","",""
"09/21/2013","16:34","213CR0022848","ACCIDENT","ACCIDENT","ALUMINUM AND UTAH","",""
"09/21/2013","16:40","213CR0022849","DISTURBANCE","DISTURBANCE","817 W GALENA","",""
"09/21/2013","16:51","213CR0022850","ASSAULT","ASSAULT","************","",""
"09/21/2013","16:51","213CR0022851","DISTURBANCE","DISTURBANCE","1446 MILES CROSSING","",""
"09/21/2013","17:04","213CR0022852","MEDICAL - EMERGENCY","MEDICAL - EMERGENCY","2121 AMHERST","",""
"09/21/2013","17:22","213CR0022853","THEFT","THEFT","3901 HARRISON AVE","",""
"09/21/2013","17:29","213CR0022854","WELFARE CHECK","PFMA - MINOR INJ/PHYSICAL CONT","2230 MASSACHUSETTS","ARREST(s) MADE",""
"09/21/2013","17:34","213CR0022855","SUSPICIOUS ACTIVITY","SUSPICIOUS ACTIVITY","ALUMINUM ST AND MAIN ST","",""
"09/21/2013","17:41","213CR0022856","JUVENILE MISC","JUVENILE MISC","************","",""
"09/21/2013","17:51","213CR0022857","VANDALISM/CRIMINAL MISCHIEF","VANDALISM/CRIMINAL MISCHIEF","1842 CAROLINA","",""
"09/21/2013","18:21","213CR0022858","SUSPICIOUS ACTIVITY","SUSPICIOUS ACTIVITY","PINION AND HARVARD","",""
"09/21/2013","18:24","213CR0022859","SUICIDE ATTEMPT/THREAT","SUICIDE ATTEMPT/THREAT","************","",""
"09/21/2013","18:35","213CR0022860","LED BUSINESS","LED BUSINESS","","",""
"09/21/2013","18:46","213CR0022861","ATL","ATL","190 MM 210 E BND","",""
"09/21/2013","18:55","213CR0022862","TRAFFIC HAZARD","TRAFFIC HAZARD","FRONT ST AND MONTANA ST","",""
"09/21/2013","19:02","213CR0022863","WANTED PERSON","POSSESSION OF DANGEROUS DRUGS","916 E FRONT","ARREST(s) MADE",""
"09/21/2013","19:09","213CR0022864","BURGLARY","BURGLARY, NON-RESIDENCE","101 S PARKMONT","",""
"09/21/2013","19:14","213CR0022865","ASSAULT","ASSAULT","************","",""
"09/21/2013","19:24","213CR0022866","CRIMINAL TRESPASS","CRIMINAL TRESPASS","1370 HARRISON AVE","",""
"09/21/2013","19:57","213CR0022867","ALARM - MEDICAL","ALARM - MEDICAL","************","",""
"09/21/2013","21:12","213CR0022868","LED BUSINESS","LED BUSINESS","","",""
"09/21/2013","21:32","213CR0022869","T/S","T/S","20 S MONTANA ST","",""
"09/21/2013","21:41","213CR0022870","T/S","T/S","801 S UTAH AVE CASAGRANDAS","",""
"09/21/2013","21:53","213CR0022871","JUVENILE MISC","JUVENILE MISC","************","",""
"09/21/2013","22:07","213CR0022872","T/S","T/S","ALBERTSONS PARKING LOT","",""
"09/21/2013","22:27","213CR0022873","T/S","T/S","SHIELDS AT VIEWING STAND","",""
"09/21/2013","22:37","213CR0022874","T/S","T/S","400 BLK ARIZONA","",""
"09/21/2013","22:53","213CR0022875","T/S","T/S","900 BLK S MONTANA ST","",""
"09/21/2013","23:02","213CR0022876","T/S","T/S","HARRISON AND CORNELL","",""
"09/21/2013","23:04","213CR0022877","DISTURBANCE","DISTURBANCE","WEST DRIVE","",""
"09/21/2013","23:07","213CR0022878","ALL OTHER","ALL OTHER","MAIN AND ALUMINUM","",""
"09/21/2013","23:10","213CR0022879","T/S","T/S","HARRISON AND MAJORS","",""
"09/21/2013","23:23","213CR0022880","DISTURBANCE","DISTURBANCE","2112 GRAND AVE","",""
"09/21/2013","23:24","213CR0022881","T/S","T/S","ELM ST AND LAFAYETTE ST","",""
"09/21/2013","23:41","213CR0022882","T/S","T/S","1800 BLK HARRISON","",""
"09/21/2013","23:50","213CR0022884","THEFT","THEFT, ALL OTHERS","526 S DAKOTA","",""
"09/21/2013","23:50","213CR0022883","T/S","T/S","EXCELSIOR AND GRANITE","",""
"09/22/2013","00:07","213CR0022885","CITIZEN AID","CITIZEN AID","3800 JUPITER LN #202B","",""
"09/22/2013","00:09","213CR0022886","SUSPICIOUS ACTIVITY","SUSPICIOUS ACTIVITY","1700 ROW SILVER BOW HOMES","",""
"09/22/2013","00:29","213CR0022887","ATL","ATL","1301 HARRISON AVE/ ALBERTSONS","",""
"09/22/2013","00:32","213CR0022888","T/S","T/S","600 BLK S MONTANA","",""
"09/22/2013","00:46","213CR0022889","T/S","T/S","3800 BLK JUPITER","",""
"09/22/2013","01:03","213CR0022890","ATL","ATL","901 E FRONT ST THRIFTWAY","",""
"09/22/2013","01:11","213CR0022891","DISTURBANCE","DISTURBANCE","1813 WILSON ST","",""
"09/22/2013","01:35","213CR0022892","T/S","T/S","MERCURY AND MAIN","",""
"09/22/2013","01:43","213CR0022893","DUI","AGGRAVATED DUI","2 E GALENA","ARREST(s) MADE",""
"09/22/2013","01:54","213CR0022894","T/S","T/S","1700 BLK GRAND AVE","",""
"09/22/2013","01:59","213CR0022895","ILLEGAL SHOOTING","ILLEGAL SHOOTING","HAIL COLUMBIA GULCH RD","",""
"09/22/2013","02:06","213CR0022896","JUVENILE MISC","JUVENILE MISC","************","",""
"09/22/2013","02:25","213CR0022897","ATL","ATL","I90 MM 228 EB","",""
"09/22/2013","02:32","213CR0022898","VANDALISM/CRIMINAL MISCHIEF","CRIMINAL MISCHIEF","1825 FLORIDA","",""
"09/22/2013","02:40","213CR0022899","DISTURBANCE-NOISE","DISTURBANCE-NOISE","GALENA AND WASHINGTON","",""
"09/22/2013","02:47","213CR0022900","HARASSMENT","HARASSMENT","9 N MAIN M // M","",""
"09/22/2013","02:48","213CR0022901","WELFARE CHECK","WELFARE CHECK","4725 HARRISON AVE","",""
"09/22/2013","08:40","213CR0022902","THEFT","THEFT FROM BUILDINGS","1522 YALE AVE","",""
"09/22/2013","09:14","213CR0022903","CITIZEN AID","CITIZEN AID","350 S MONTANA","",""
"09/22/2013","09:25","213CR0022904","T/S","DRIVING W/OUT VALID D/L","900 BLK N EXCELSIOR","",""
"09/22/2013","09:44","213CR0022905","MEDICAL - EMERGENCY","MEDICAL - EMERGENCY","409 W GOLD","",""
"09/22/2013","10:13","213CR0022906","CITIZEN AID","CITIZEN AID","1124 OREGON","",""
"09/22/2013","10:39","213CR0022907","T/S","T/S","1200 BLK S MONTANA ST","",""
"09/22/2013","10:57","213CR0022908","T/S","T/S","2600 BLK FLORAL","",""
"09/22/2013","11:49","213CR0022909","FIRE - STRUCTURE","FIRE - STRUCTURE","1703 THOMAS","",""
"09/22/2013","12:02","213CR0022910","T/S","T/S","2100 BLK GRAND","",""
"09/22/2013","12:10","213CR0022911","STOLEN VEHICLE","MOTOR VEHICLE THEFT","BUTTE","",""
"09/22/2013","12:17","213CR0022912","ATL","ATL","MONTANA ST AND PORPHYRY ST","",""
"09/22/2013","12:25","213CR0022913","ANIMAL COMPLAINT","ANIMAL COMPLAINT","1 JOSETTE","",""
"09/22/2013","12:31","213CR0022914","MEDICAL - EMERGENCY","MEDICAL - EMERGENCY","1620 ELM ST","",""
"09/22/2013","12:34","213CR0022915","WELFARE CHECK","WELFARE CHECK","2939 BUSCH ST","",""
"09/22/2013","12:44","213CR0022916","WANTED PERSON","WANTED PERSON","************","",""
"09/22/2013","12:50","213CR0022917","DISTURBANCE","PFMA - MINOR INJ/PHYSICAL CONT","3116 KEOKUK","ARREST(s) MADE",""
"09/22/2013","13:05","213CR0022918","MEDICAL - EMERGENCY","MEDICAL - EMERGENCY","HARRISON AND MOTOR VIEW","",""
"09/22/2013","13:29","213CR0022919","MEDICAL - EMERGENCY","MEDICAL - EMERGENCY","1205 S MONTANA","",""
"09/22/2013","13:33","213CR0022920","HARASSMENT","HARASSMENT","1129 W GRANITE","",""
"09/22/2013","13:41","213CR0022921","TRAFFIC HAZARD","TRAFFIC HAZARD","800 BLK W PARK ST","",""
"09/22/2013","14:09","213CR0022922","JUVENILE RUNAWAY","JUVENILE RUNAWAY","************","",""
"09/22/2013","14:16","213CR0022923","ATL","ATL","I 15 MM 122 N BND","",""
"09/22/2013","14:25","213CR0022924","VANDALISM/CRIMINAL MISCHIEF","VANDALISM/CRIMINAL MISCHIEF","1380 JOY LANE","",""
"09/22/2013","14:26","213CR0022925","MEDICAL - EMERGENCY","MEDICAL - EMERGENCY","1805 GARFIELD","",""
"09/22/2013","14:41","213CR0022926","ATL","ATL","1301 HARRISON AVE","",""
"09/22/2013","14:57","213CR0022927","VANDALISM/CRIMINAL MISCHIEF","VANDALISM/CRIMINAL MISCHIEF","1300 W PARK ST","",""
"09/22/2013","15:01","213CR0022928","LED BUSINESS","LED BUSINESS","","",""
"09/22/2013","15:10","213CR0022929","MEDICAL - EMERGENCY","MEDICAL - EMERGENCY","630 SAMPSON","",""
"09/22/2013","15:19","213CR0022930","UNWANTED PERSON","UNWANTED PERSON","************","",""
"09/22/2013","15:26","213CR0022931","T/S","T/S","MERCURY AND S DAKAOTA","",""
"09/22/2013","15:38","213CR0022932","T/S","T/S","MAIN ST AND WOOLMAN ST","",""
"09/22/2013","15:39","213CR0022933","TRAFFIC HAZARD","TRAFFIC HAZARD","I 15 MM 122 S BND","",""
"09/22/2013","15:48","213CR0022934","MC COMPLAINT","OBSTRUCTING A PEACE OFFICER","1446 MILES CROSSING RD","",""
"09/22/2013","15:54","213CR0022935","ATL","ATL","CONTINENTAL AND SILVER BOW","",""
"09/22/2013","15:59","213CR0022936","DISTURBANCE","DISTURBANCE","1041 S UTAH","",""
"09/22/2013","16:28","213CR0022937","MEDICAL - EMERGENCY","MEDICAL - EMERGENCY","1120 W PARK ST","",""
"09/22/2013","16:31","213CR0022938","MEDICAL - EMERGENCY","MEDICAL - EMERGENCY","2122 OTTAWA","",""
"09/22/2013","16:35","213CR0022939","ALL OTHER","ALL OTHER","5100 S WARREN #56","",""
"09/22/2013","16:37","213CR0022940","ATL","ATL","ELIZABETH WARREN AN HARRISON","",""
"09/22/2013","16:43","213CR0022941","MEDICAL - EMERGENCY","MEDICAL - EMERGENCY","1959 PRINCETON","",""
"09/22/2013","17:06","213CR0022942","DISTURBANCE","DISTURBANCE","1945 S UTAH","",""
"09/22/2013","17:12","213CR0022943","WELFARE CHECK","WELFARE CHECK","","",""
"09/22/2013","17:17","213CR0022944","DISTURBANCE","DISTURBANCE","675 S MAIN","",""
"09/22/2013","17:22","213CR0022945","UNWANTED PERSON","DISORDERLY CONDUCT","62 W BROADWAY","ARREST(s) MADE",""
"09/22/2013","17:35","213CR0022946","WANTED PERSON","WANTED PERSON","************","",""
"09/22/2013","17:45","213CR0022947","ALL OTHER","ALL OTHER","821 N HENRY ST","",""
"09/22/2013","17:47","213CR0022948","FIRE- GAS ODOR","FIRE- GAS ODOR","628 W GALENA","",""
"09/22/2013","17:57","213CR0022949","T/S","T/S","EXCELSIOR AND WAUKESHA","",""
"09/22/2013","18:43","213CR0022950","INTOXICATED PERSON","INTOXICATED PERSON","2929 HARRISON AVE","",""
"09/22/2013","18:48","213CR0022951","ALL OTHER","ALL OTHER","624 1/2 S NEVADA ST","",""
"09/22/2013","19:35","213CR0022952","ATL","ATL","1600 BLK HARRISON AVE","",""
"09/22/2013","19:39","213CR0022953","ASSAULT","ASSAULT","************","",""
"09/22/2013","19:58","213CR0022954","MEDICAL - EMERGENCY","MEDICAL - EMERGENCY","1906 MASSACHUSETTS","",""
"09/22/2013","20:36","213CR0022955","UNWANTED PERSON","UNWANTED PERSON","************","",""
"09/22/2013","21:11","213CR0022956","SUSPICIOUS ACTIVITY","SUSPICIOUS ACTIVITY","3015 BUSCH ST","",""
"09/22/2013","21:21","213CR0022957","DISTURBANCE","DISTURBANCE","2801 OTTAWA","",""
"09/22/2013","22:00","213CR0022959","HIT AND RUN","POSSESS TOXIC SUBSTANCES","FLORENCE AND OTTOWA","ARREST(s) MADE",""
"09/22/2013","22:30","213CR0022960","WELFARE CHECK","WELFARE CHECK","522 N WYOMING","",""
"09/22/2013","23:01","213CR0022961","MEDICAL - EMERGENCY","MEDICAL - EMERGENCY","1807 SILVERBOW HOMES","",""
"09/22/2013","23:12","213CR0022962","THEFT","THEFT, SHOPLIFT","1370 HARRISON AVE","",""
"09/22/2013","23:13","213CR0022963","WELFARE CHECK","DUI - (REFUSAL)","GRANITE AND MAIN","ARREST(s) MADE",""
"09/22/2013","23:50","213CR0022964","UNWANTED PERSON","UNWANTED PERSON","************","",""
"09/23/2013","00:07","213CR0022965","STOLEN VEHICLE","MOTOR VEHICLE THEFT","2702 WALNUT CRAZEE CAROLS","",""
"09/23/2013","01:09","213CR0022966","DISTURBANCE","DISTURBANCE","1041 S UTAH","",""
"09/23/2013","01:25","213CR0022967","SUSPICIOUS ACTIVITY","OBSTRUCTING A PEACE OFFICER","ELM AND CAROLINA","ARREST(s) MADE",""
"09/23/2013","02:32","213CR0022968","UNWANTED PERSON","UNWANTED PERSON","************","",""
"09/23/2013","02:36","213CR0022969","MEDICAL - EMERGENCY","MEDICAL - EMERGENCY","4 GLADSTONE TERRACE","",""
"09/23/2013","02:54","213CR0022970","PROWLER","PROWLER","3023 HECLA","",""
"09/23/2013","06:46","213CR0022971","MEDICAL - EMERGENCY","MEDICAL - EMERGENCY","1959 PRINCETON","",""
"09/23/2013","07:29","213CR0022972","THEFT","THEFT","3499 HARRISON AVE","",""
"09/23/2013","07:48","213CR0022973","INFORMATION ONLY","INFORMATION ONLY","","",""
"09/23/2013","07:51","213CR0022974","CIVIL PAPER SERVICE","CIVIL PAPER SERVICE","832 COLORADO","",""
"09/23/2013","08:00","213CR0022975","T/S","T/S @ CONTINENTAL DR AND KOSSUTH ST","CONTINENTAL DR AND KOSSUTH ST","",""
"09/23/2013","08:01","213CR0022976","T/S","T/S @ HARRISON AND COBBAN","HARRISON AND COBBAN","",""
"09/23/2013","08:05","213CR0022977","T/S","T/S @ LOWELL AND COBBAN","LOWELL AND COBBAN","",""

BSB police log ending Sept. 20, 2013

"09/18/2013","01:34","213CR0022526","THEFT","THEFT","515 JAMES ST","",""
"09/18/2013","01:41","213CR0022527","ALARM - BURGLARY","ALARM - BURGLARY","************","",""
"09/18/2013","02:04","213CR0022528","DISTURBANCE-NOISE","DISTURBANCE-NOISE","228 E SECOND ST","",""
"09/18/2013","02:42","213CR0022529","SUSPICIOUS ACTIVITY","SUSPICIOUS ACTIVITY","800 BLK WAUKESHA","",""
"09/18/2013","02:58","213CR0022530","MEDICAL - EMERGENCY","MEDICAL - EMERGENCY","2900 HARRISON AVE","",""
"09/18/2013","03:53","213CR0022531","DISTURBANCE","DISTURBANCE","1801 GAYLORD ST","",""
"09/18/2013","04:11","213CR0022532","ALARM - BURGLARY","ALARM - BURGLARY","************","",""
"09/18/2013","04:22","213CR0022533","ALARM - BURGLARY","ALARM - BURGLARY","************","",""
"09/18/2013","04:53","213CR0022534","ALARM - BURGLARY","ALARM - BURGLARY","************","",""
"09/18/2013","05:41","213CR0022535","MEDICAL - EMERGENCY","MEDICAL - EMERGENCY","105 RAMPART DR #215","",""
"09/18/2013","06:43","213CR0022536","SUSPICIOUS ACTIVITY","SUSPICIOUS ACTIVITY","2401 CONTINENTAL DR","",""
"09/18/2013","06:48","213CR0022537","ALARM - FIRE","ALARM - FIRE","2400 CONTINENTAL","",""
"09/18/2013","06:58","213CR0022538","LED BUSINESS","LED BUSINESS","708 W PARK","",""
"09/18/2013","07:08","213CR0022539","MEDICAL - EMERGENCY","MEDICAL - EMERGENCY","2907 HANSON RD","",""
"09/18/2013","08:00","213CR0022540","ALARM - BURGLARY","ALARM - BURGLARY","************","",""
"09/18/2013","08:03","213CR0022541","T/S","T/S","HARRISON AND MAJORS","",""
"09/18/2013","08:08","213CR0022542","STOLEN VEHICLE","STOLEN VEHICLE","122005 NISSLER RD","",""
"09/18/2013","08:11","213CR0022543","T/S","T/S","FARRAGUT AVE AND AMHERST ST","",""
"09/18/2013","08:21","213CR0022544","T/S","T/S","CONTINENTAL AND WHARTON","",""
"09/18/2013","08:35","213CR0022545","BUSINESS CHECK","BUSINESS CHECK","1400 HARRISON AVE","",""
"09/18/2013","08:39","213CR0022546","THEFT","THEFT FROM MOTOR VEHICLE","2100 FARRAGUT","",""
"09/18/2013","08:50","213CR0022547","LED BUSINESS","LED BUSINESS","155 W QUARTZ","",""
"09/18/2013","09:00","213CR0022548","ALARM - MEDICAL","ALARM - MEDICAL","************","",""
"09/18/2013","09:06","213CR0022549","ASSAULT","ASSAULT","************","",""
"09/18/2013","09:10","213CR0022550","DISTURBANCE","PROTECTIVE CUSTODY","155 W GRANITE","ARREST(s) MADE",""
"09/18/2013","09:10","213CR0022551","LED BUSINESS","LED BUSINESS","155 W QUARTZ","",""
"09/18/2013","09:13","213CR0022552","T/S","T/S","CONTINENTAL AND BAYARD","",""
"09/18/2013","09:22","213CR0022553","PARKING COMPLAINT","PARKING COMPLAINT","921 W WOOLMAN","",""
"09/18/2013","09:39","213CR0022554","MEDICAL - EMERGENCY","MEDICAL - EMERGENCY","1729 LOWELL","",""
"09/18/2013","09:52","213CR0022555","THEFT","THEFT, SHOPLIFT","3901 HARRISON AVE","",""
"09/18/2013","10:01","213CR0022556","JUVENILE MISC","JUVENILE MISC","************","",""
"09/18/2013","10:08","213CR0022557","ACCIDENT","CARELESS DRIVING","2017 HARRISON","",""
"09/18/2013","10:14","213CR0022558","FOUND PROPERTY","FOUND PROPERTY","************","",""
"09/18/2013","10:28","213CR0022559","ABANDONED VEHICLE","ABANDONED VEHICLE","3900 HARRISON AVE","",""
"09/18/2013","10:35","213CR0022560","ASSIST OTHER AGENCY","ASSIST OTHER AGENCY","401 S CLARK","",""
"09/18/2013","10:50","213CR0022561","T/S","T/S","PAXSON AVE AND HARRISON AVE","",""
"09/18/2013","11:13","213CR0022562","CIVIL PAPER SERVICE","CIVIL PAPER SERVICE","3450 HARRISON AVE","",""
"09/18/2013","11:19","213CR0022563","T/S","T/S","FOUR MILE RD AND HARRISON AVE","",""
"09/18/2013","11:24","213CR0022564","CIVIL PAPER SERVICE","CIVIL PAPER SERVICE","307 S IDAHO","",""
"09/18/2013","11:35","213CR0022565","T/S","T/S","FRONT AND NEVADA","",""
"09/18/2013","11:41","213CR0022566","ANIMAL COMPLAINT","ANIMAL COMPLAINT","2128 ARGYLE","",""
"09/18/2013","11:46","213CR0022567","SUSPICIOUS ACTIVITY","SUSPICIOUS ACTIVITY","HARRISON AND NOYES","",""
"09/18/2013","11:51","213CR0022568","T/S","T/S","MAIN ST AND PLATINUM ST","",""
"09/18/2013","11:55","213CR0022569","T/S","CRIMINAL CONTEMPT","WHITMAN AND DRIGGS","ARREST(s) MADE",""
"09/18/2013","12:11","213CR0022570","FIRE- GAS ODOR","FIRE- GAS ODOR","326 N EXCELSIOR AVE","",""
"09/18/2013","12:16","213CR0022571","CIVIL PAPER SERVICE","CIVIL PAPER SERVICE","300 MT HIGHLAND DR","",""
"09/18/2013","12:26","213CR0022572","BURGLARY","BURGLARY","520 N WYOMING","",""
"09/18/2013","12:35","213CR0022573","MEDICAL - EMERGENCY","MEDICAL - EMERGENCY","119800 RICK JONES WAY","",""
"09/18/2013","12:37","213CR0022574","CIVIL PAPER SERVICE","CIVIL PAPER SERVICE","1035 W WOOLMAN","",""
"09/18/2013","12:44","213CR0022575","ASSAULT","ASSAULT","************","",""
"09/18/2013","12:56","213CR0022576","JUVENILE MISC","JUVENILE MISC","************","",""
"09/18/2013","13:41","213CR0022577","VANDALISM/CRIMINAL MISCHIEF","VANDALISM/CRIMINAL MISCHIEF","3100 HARRISON AVE","",""
"09/18/2013","13:55","213CR0022578","SUSPICIOUS ACTIVITY","SELLING W/O TEMP. BUSINESS LIC","1800 BLK CAROLINA","ARREST(s) MADE",""
"09/18/2013","14:00","213CR0022579","ATL","ATL","HARRISON AVE AT DEWEY BLVD","",""
"09/18/2013","14:15","213CR0022580","HIT AND RUN","HIT AND RUN","737 W PARK","",""
"09/18/2013","14:20","213CR0022581","T/S","T/S","COBBAN ST AND FLORENCE AVE","",""
"09/18/2013","14:26","213CR0022583","THEFT","THEFT","225 N ALASKA ST","",""
"09/18/2013","14:28","213CR0022584","ASSIST OTHER AGENCY","ASSIST OTHER AGENCY","631 W GALENA","",""
"09/18/2013","14:36","213CR0022585","T/S","T/S","CONTINENTAL AND BAYARD","",""
"09/18/2013","14:40","213CR0022586","T/S","T/S","CONTINENTAL DRIVE AND HANNIBAL","",""
"09/18/2013","14:54","213CR0022587","T/S","T/S","CONTINENTAL AND BAYARDS","",""
"09/18/2013","15:10","213CR0022588","SUSPICIOUS ACTIVITY","SUSPICIOUS ACTIVITY","MT CON MINE","",""
"09/18/2013","15:25","213CR0022589","T/S","T/S","FRONT AND WYOMING","",""
"09/18/2013","15:26","213CR0022591","THEFT","THEFT","MT CON MINE YARD","",""
"09/18/2013","15:26","213CR0022590","FIRE- GAS ODOR","FIRE- GAS ODOR","8 W MERCURY ST","",""
"09/18/2013","15:28","213CR0022592","LOST CHILD","LOST CHILD","************","",""
"09/18/2013","15:49","213CR0022593","JUVENILE MISC","JUVENILE MISC","************","",""
"09/18/2013","15:50","213CR0022594","MEDICAL - EMERGENCY","MEDICAL - EMERGENCY","526 W PARK #D","",""
"09/18/2013","15:56","213CR0022595","WELFARE CHECK","CRIMINAL CONTEMPT","700 BLK CASEY ST","ARREST(s) MADE",""
"09/18/2013","15:58","213CR0022597","CHILD ABUSE","CHILD ABUSE","************","",""
"09/18/2013","15:58","213CR0022596","T/S","T/S","1300 W PARK","",""
"09/18/2013","16:11","213CR0022598","FIRE- GAS ODOR","FIRE- GAS ODOR","425 S IDAHO #C","",""
"09/18/2013","16:16","213CR0022599","JUVENILE MISC","JUVENILE MISC","************","",""
"09/18/2013","16:18","213CR0022600","WELFARE CHECK","WELFARE CHECK","1110 SILVER BOW HOMES","",""
"09/18/2013","17:03","213CR0022601","THEFT","THEFT","1217 E FRONT","",""
"09/18/2013","17:07","213CR0022602","ASSIST OTHER AGENCY","ASSIST OTHER AGENCY","155 W QUARTZ","",""
"09/18/2013","17:08","213CR0022603","ACCIDENT","ACCIDENT","3000 BLK HARRISON AVE","",""
"09/18/2013","17:11","213CR0022604","ACCIDENT","CARELESS DRIVING","2800 BLK HARRISON AVE","",""
"09/18/2013","17:29","213CR0022605","ACCIDENT","ACCIDENT","1700 BLK CONTINENTAL DR","",""
"09/18/2013","17:53","213CR0022606","WELFARE CHECK","WELFARE CHECK","4034 WYNNE #4","",""
"09/18/2013","18:19","213CR0022607","MEDICAL - EMERGENCY","MEDICAL - EMERGENCY","4329 CONTINENTAL DR","",""
"09/18/2013","18:39","213CR0022608","UNKNOWN PROBLEM","UNKNOWN PROBLEM","117 POWDER LOOP","",""
"09/18/2013","18:49","213CR0022609","DISTURBANCE","DISTURBANCE","WARREN AND WATERLINE RD","",""
"09/18/2013","19:16","213CR0022610","WANTED PERSON","WANTED PERSON","************","",""
"09/18/2013","19:33","213CR0022611","ASSIST OTHER AGENCY","ASSIST OTHER AGENCY","2315 SILVER BOW BLVD","",""
"09/18/2013","19:37","213CR0022612","SUSPICIOUS ACTIVITY","SUSPICIOUS ACTIVITY","HENRY AND QUARTZ","",""
"09/18/2013","19:59","213CR0022613","MEDICAL - EMERGENCY","MEDICAL - EMERGENCY","155 W QUARTZ","",""
"09/18/2013","21:07","213CR0022614","SUSPICIOUS ACTIVITY","DUI DRUGS OR ALCOHOL","100 BLK N HAMILTON","ARREST(s) MADE",""
"09/18/2013","22:07","213CR0022615","HARASSMENT","PRIVACY IN COMMUNICATION","2609 HARRISON HOLIDAY INN EXPR","",""
"09/18/2013","22:50","213CR0022616","SUSPICIOUS ACTIVITY","SUSPICIOUS ACTIVITY","800 BLK UTAH AVE","",""
"09/18/2013","23:12","213CR0022617","ATL","ATL","4655 HARRISON/COPPERKING INN","",""
"09/18/2013","23:32","213CR0022618","SUSPICIOUS ACTIVITY","SUSPICIOUS ACTIVITY","441 S MONTANA","",""
"09/18/2013","23:57","213CR0022619","T/S","T/S","GRANITE MOUNTAIN MEMORIAL","",""
"09/19/2013","00:29","213CR0022620","DISTURBANCE","DISTURBANCE","217 VIRGINIA","",""
"09/19/2013","01:00","213CR0022621","HARASSMENT","HARASSMENT","405 W MERCURY","",""
"09/19/2013","01:15","213CR0022622","SUSPICIOUS ACTIVITY","THEFT, ALL OTHERS","3901 HARRISON AVE","ARREST(s) MADE",""
"09/19/2013","07:23","213CR0022623","THEFT","THEFT","1700 S UTAH","",""
"09/19/2013","07:58","213CR0022624","THEFT","THEFT FROM MOTOR VEHICLE","2017 S ARIZONA","",""
"09/19/2013","08:00","213CR0022625","ALARM - ROBBERY","ALARM - ROBBERY","1760 HARRISON AVE","",""
"09/19/2013","08:13","213CR0022626","WANTED PERSON","CRIMINAL CONTEMPT","FRONT ST AND UTAH AVE","ARREST(s) MADE",""
"09/19/2013","08:22","213CR0022627","DETENTION BUSINESS","DETENTION BUSINESS","************","",""
"09/19/2013","08:42","213CR0022629","CIVIL PAPER SERVICE","CIVIL PAPER SERVICE","27 W DIAMOND","",""
"09/19/2013","08:45","213CR0022630","CIVIL PAPER SERVICE","CIVIL PAPER SERVICE","36 W SILVER","",""
"09/19/2013","08:52","213CR0022631","CIVIL PAPER SERVICE","CIVIL PAPER SERVICE","615 N EXCELSIOR","",""
"09/19/2013","08:58","213CR0022632","CIVIL PAPER SERVICE","CIVIL PAPER SERVICE","960 LEWISHON","",""
"09/19/2013","08:59","213CR0022633","SUSPICIOUS ACTIVITY","SUSPICIOUS ACTIVITY","1 1/2 MILE N ON MOULTON RES R","",""
"09/19/2013","09:00","213CR0022634","CIVIL PAPER SERVICE","CIVIL PAPER SERVICE","201 HOBSON #30","",""
"09/19/2013","09:04","213CR0022635","CIVIL PAPER SERVICE","CIVIL PAPER SERVICE","210 HOBSON #29","",""
"09/19/2013","09:09","213CR0022636","THEFT","THEFT","2535 NETTIE ST","",""
"09/19/2013","09:11","213CR0022637","DISTURBANCE","DISTURBANCE","1900 ROW SILVER BOW HOMES","",""
"09/19/2013","09:15","213CR0022638","T/S","T/S","TEXAS AVE AND GRAND AVE","",""
"09/19/2013","09:19","213CR0022639","DISTURBANCE","DISTURBANCE","24 E COPPER ST","",""
"09/19/2013","09:30","213CR0022640","ABANDONED VEHICLE","ABANDONED VEHICLE","901 S WASHINGTON #24","",""
"09/19/2013","09:31","213CR0022641","ACCIDENT","ACCIDENT","1728 A ST","",""
"09/19/2013","09:33","213CR0022642","JUVENILE MISC","JUVENILE MISC","************","",""
"09/19/2013","09:46","213CR0022643","JUVENILE MISC","JUVENILE MISC","************","",""
"09/19/2013","09:46","213CR0022644","ANIMAL COMPLAINT","ANIMAL COMPLAINT","HOMESTAKE AREA","",""
"09/19/2013","09:57","213CR0022645","FIRE- GAS ODOR","FIRE- GAS ODOR","319 S EXCELSIOR","",""
"09/19/2013","10:04","213CR0022646","T/S","T/S","COBBAN AND HARRISON","",""
"09/19/2013","10:07","213CR0022647","INFORMATION ONLY","INFORMATION ONLY","401 S WYOMING ST","",""
"09/19/2013","10:11","213CR0022648","WELFARE CHECK","WELFARE CHECK","1601 KAW AVE #86","",""
"09/19/2013","10:38","213CR0022649","ASSIST OTHER AGENCY","ASSIST OTHER AGENCY","155 W GRANITE ST","",""
"09/19/2013","10:50","213CR0022650","DISTURBANCE","DISTURBANCE","865 S MAIN ST","",""
"09/19/2013","11:04","213CR0022651","CIVIL PAPER SERVICE","CIVIL PAPER SERVICE","115 E BROADWAY","",""
"09/19/2013","11:06","213CR0022652","CIVIL PAPER SERVICE","CIVIL PAPER SERVICE","2325 PRINCETON","",""
"09/19/2013","11:15","213CR0022653","MEDICAL - EMERGENCY","MEDICAL - EMERGENCY","1515 OREGON AVE APT 503","",""
"09/19/2013","11:22","213CR0022655","CIVIL PAPER SERVICE","CIVIL PAPER SERVICE","2941 BUSCH","",""
"09/19/2013","11:22","213CR0022654","CITIZEN AID","CITIZEN AID","1258 E FARRELL","",""
"09/19/2013","11:28","213CR0022656","THEFT","THEFT FROM MOTOR VEHICLE","1800 BLK GAYLORD ST","",""
"09/19/2013","11:33","213CR0022657","HIT AND RUN","HIT AND RUN, UNATTENDED VEHICL","3939 HARRISON AVE","",""
"09/19/2013","11:45","213CR0022658","CRIMINAL TRESPASS","CRIMINAL TRESPASS","805 SILVER BOW HOMES","",""
"09/19/2013","12:39","213CR0022659","WANTED PERSON","WANTED PERSON","************","",""
"09/19/2013","13:23","213CR0022660","ALARM - FIRE","ALARM - FIRE","1300 W PARK ST","",""
"09/19/2013","13:31","213CR0022661","STOLEN VEHICLE","STOLEN VEHICLE","3901 HARRISON AVE","",""
"09/19/2013","13:35","213CR0022662","WANTED PERSON","PROBATION VIOLATION","BROADWAY ST AND MAIN ST","ARREST(s) MADE",""
"09/19/2013","13:49","213CR0022663","INFORMATION ONLY","INFORMATION ONLY","712 E FRONT ST","",""
"09/19/2013","14:08","213CR0022664","FIRE- GAS ODOR","FIRE- GAS ODOR","628 W GALENA","",""
"09/19/2013","14:11","213CR0022665","T/S","T/S","COBBAN AND CALIFORNIA","",""
"09/19/2013","14:11","213CR0022666","T/S","T/S","DEWEY BLVD AND HARRISON AVE","",""
"09/19/2013","14:39","213CR0022667","SUSPICIOUS ACTIVITY","SUSPICIOUS ACTIVITY","2101 YALE","",""
"09/19/2013","15:01","213CR0022668","THEFT","THEFT","25 BASIN CREEK RD","",""
"09/19/2013","15:30","213CR0022669","T/S","T/S @ SHERMAN AVE AND OTTAWA ST","SHERMAN AVE AND OTTAWA ST","",""
"09/19/2013","16:24","213CR0022670","LOST CHILD","LOST CHILD","************","",""
"09/19/2013","17:17","213CR0022671","DISTURBANCE","OUT OF JURISDICTION - MISD","GOLD ST AND IDAHO ST","ARREST(s) MADE",""
"09/19/2013","17:24","213CR0022672","SUSPICIOUS ACTIVITY","SUSPICIOUS ACTIVITY","140 W FREMONT ST","",""
"09/19/2013","17:43","213CR0022673","RESTRAINING ORDER VIOLATION","RESTRAINING ORDER VIOLATION","************","",""
"09/19/2013","17:44","213CR0022674","CIVIL STANDBY","CIVIL STANDBY","715 W PARK","",""
"09/19/2013","18:04","213CR0022675","CIVIL STANDBY","CIVIL STANDBY","1025 W WOOLMAN","",""
"09/19/2013","18:28","213CR0022676","ATL","ATL","1370 HARRISON AVE","",""
"09/19/2013","18:31","213CR0022677","PROWLER","PROWLER","400 BLK S IDAHO","",""
"09/19/2013","18:34","213CR0022678","DISTURBANCE","DISTURBANCE","1025 W WOOLMAN","",""
"09/19/2013","18:37","213CR0022679","PROWLER","PROWLER","425 S IDAHO","",""
"09/19/2013","18:51","213CR0022680","ALL OTHER","ALL OTHER","760 BROWNS GULCH RD","",""
"09/19/2013","19:26","213CR0022681","DISTURBANCE","DISTURBANCE","9 MILE AT THOMPSON PARK","",""
"09/19/2013","20:03","213CR0022682","UNWANTED PERSON","UNWANTED PERSON","************","",""
"09/19/2013","20:10","213CR0022683","HIT AND RUN","HIT AND RUN, UNATTENDED VEHICL","2324 S MONTANA ST","",""
"09/19/2013","20:10","213CR0022684","DISTURBANCE","DISTURBANCE","300 ROW SILVER BOW HOMES","",""
"09/19/2013","20:57","213CR0022685","WELFARE CHECK","WELFARE CHECK","1801 GAYLORD ST","",""
"09/19/2013","21:31","213CR0022686","THEFT","THEFT","2426 LOCUST","",""
"09/19/2013","21:51","213CR0022687","DISTURBANCE-NOISE","DISTURBANCE-NOISE","1706 SILVERBOW HOMES","",""
"09/19/2013","22:30","213CR0022688","ALARM - MEDICAL","ALARM - MEDICAL","************","",""
"09/19/2013","23:01","213CR0022689","TRAFFIC HAZARD","TRAFFIC HAZARD","","",""
"09/19/2013","23:41","213CR0022690","SUSPICIOUS ACTIVITY","SUSPICIOUS ACTIVITY","2721 HARRISON MAGIC DIAMOND","",""
"09/19/2013","23:53","213CR0022691","T/S","T/S","1700 BLK DEWEY","",""
"09/20/2013","00:30","213CR0022692","T/S","T/S","LEXINGTON AVE AND HOBSON ST","",""
"09/20/2013","01:28","213CR0022694","WELFARE CHECK","WELFARE CHECK","501 W GRANITE","",""
"09/20/2013","01:52","213CR0022695","HIT AND RUN","AGGRAVATED DUI","100 BLK S MAIN","ARREST(s) MADE",""
"09/20/2013","01:56","213CR0022696","T/S","T/S","","",""
"09/20/2013","02:03","213CR0022697","ILLEGAL SHOOTING","ILLEGAL SHOOTING","10 BLK S MONTANA","",""
"09/20/2013","02:04","213CR0022698","ACCIDENT","ACCIDENT","I15 MM 123 SB","",""
"09/20/2013","03:13","213CR0022699","HIT AND RUN","HIT AND RUN","1925 ADAMS","",""
"09/20/2013","03:59","213CR0022700","DISTURBANCE","DISTURBANCE","2825 FARRAGUT","",""
"09/20/2013","04:11","213CR0022701","DISTURBANCE","DISTURBANCE","1706 WHITMAN","",""
"09/20/2013","04:39","213CR0022702","BUSINESS CHECK","BUSINESS CHECK","1324 HARRISON AVE","",""

BSB police log ending Sept. 18, 2013

"09/17/2013","00:45","213CR0022453","T/S","T/S @ BUSCH ST AND SAMPSON ST","BUSCH ST AND SAMPSON ST","",""
"09/17/2013","01:01","213CR0022454","T/S","T/S","COMFORT INN PARKING LOT","",""
"09/17/2013","02:12","213CR0022455","ASSIST OTHER AGENCY","ASSIST OTHER AGENCY","2324 S MONTANA / TOWN PUMP","",""
"09/17/2013","02:15","213CR0022456","ALARM - BURGLARY","ALARM - BURGLARY","************","",""
"09/17/2013","03:37","213CR0022457","MEDICAL - EMERGENCY","MEDICAL - EMERGENCY","3131 AMHERST","",""
"09/17/2013","05:05","213CR0022458","MEDICAL - EMERGENCY","MEDICAL - EMERGENCY","9 N MAIN","",""
"09/17/2013","05:14","213CR0022459","HARASSMENT","HARASSMENT","1110 SILVER BOW HOMES","",""
"09/17/2013","05:29","213CR0022460","THEFT","THEFT","1900 PRINCETON ST","",""
"09/17/2013","06:29","213CR0022461","SUSPICIOUS ACTIVITY","SUSPICIOUS ACTIVITY","308 GRANITE MTN RD","",""
"09/17/2013","06:52","213CR0022462","LED BUSINESS","LED BUSINESS","1300 W PARK","",""
"09/17/2013","07:26","213CR0022463","HIT AND RUN","HIT AND RUN, UNATTENDED VEHICL","2005 FLORENCE","",""
"09/17/2013","07:50","213CR0022464","T/S","T/S","TEXAS AND CIVIC CENTER RD N","",""
"09/17/2013","08:14","213CR0022465","T/S","T/S","ALBANY AND BURLINGTON","",""
"09/17/2013","08:17","213CR0022466","THEFT","THEFT FROM BUILDINGS","2975 WASHOE ST/YMCA","",""
"09/17/2013","08:19","213CR0022467","T/S","T/S","ALBANY AND BURLINGTON","",""
"09/17/2013","08:26","213CR0022468","T/S","T/S","CONTINENTAL DR AND QUINCY ST","",""
"09/17/2013","08:34","213CR0022469","THEFT","THEFT","","",""
"09/17/2013","08:42","213CR0022470","FRAUD","FRAUD","2900 BLK ELIZABETH WARREN","",""
"09/17/2013","09:02","213CR0022471","FOUND PROPERTY","FOUND PROPERTY","************","",""
"09/17/2013","09:05","213CR0022472","DISTURBANCE","CRIMINAL MISCHIEF","901 E FRONT","",""
"09/17/2013","09:11","213CR0022473","ACCIDENT","DRIVING W/OUT VALID D/L","DEWEY AND LEXINGTON","",""
"09/17/2013","09:18","213CR0022474","DETENTION BUSINESS","DETENTION BUSINESS","************","",""
"09/17/2013","09:19","213CR0022475","VANDALISM/CRIMINAL MISCHIEF","CRIMINAL MISCHIEF","MOUNTAIN CON MINE","",""
"09/17/2013","09:25","213CR0022476","LED CRASH","LED CRASH","225 N ALASKA ST","",""
"09/17/2013","09:42","213CR0022477","STOLEN VEHICLE","BURGLARY, RESIDENCE","2217 SILVER BOW BLVD","",""
"09/17/2013","09:51","213CR0022478","T/S","T/S","GILMAN ST AND HARRISON AVE","",""
"09/17/2013","09:52","213CR0022479","T/S","T/S","PARK ST AND DAKOTA ST","",""
"09/17/2013","09:54","213CR0022480","JUVENILE MISC","ASSAULT ON PEACE OFFICER","1050 S MONTANA","ARREST(s) MADE",""
"09/17/2013","10:02","213CR0022481","T/S","T/S","1100 BLK S MAIN ST","",""
"09/17/2013","10:16","213CR0022482","MEDICAL - EMERGENCY","MEDICAL - EMERGENCY","14 E GAGNON","",""
"09/17/2013","10:19","213CR0022483","INTIMIDATION","INTIMIDATION","155 W QUARTZ","",""
"09/17/2013","10:29","213CR0022484","WELFARE CHECK","WELFARE CHECK","520 N WYOMING","",""
"09/17/2013","10:51","213CR0022485","FIRE- GAS ODOR","FIRE- GAS ODOR","2036 ROBERTS","",""
"09/17/2013","10:59","213CR0022486","VANDALISM/CRIMINAL MISCHIEF","CRIMINAL MISCHIEF","2118 GARRISON","",""
"09/17/2013","11:07","213CR0022487","LED BUSINESS","LED BUSINESS","155 W GRANITE","",""
"09/17/2013","11:07","213CR0022488","FRAUD","THEFT OF IDENTITY","225 N ALASKA ST","",""
"09/17/2013","11:23","213CR0022490","THEFT","BURGLARY, RESIDENCE","1118 CALIFORNIA","",""
"09/17/2013","11:24","213CR0022489","MEDICAL - EMERGENCY","MEDICAL - EMERGENCY","2000 DEWEY BLVD","",""
"09/17/2013","11:43","213CR0022491","MEDICAL - EMERGENCY","MEDICAL - EMERGENCY","910 EVANS #G5","",""
"09/17/2013","12:08","213CR0022492","VEHICLE INSPECTION","VEHICLE INSPECTION","318 W GRANITE ST","",""
"09/17/2013","12:23","213CR0022493","BUSINESS CHECK","BUSINESS CHECK","HOLME // HARRISON","",""
"09/17/2013","12:32","213CR0022494","THEFT","BURGLARY, RESIDENCE","721 MARYLAND","",""
"09/17/2013","12:48","213CR0022495","SUSPICIOUS ACTIVITY","SUSPICIOUS ACTIVITY","I15 WB RAMSAY","",""
"09/17/2013","13:20","213CR0022496","HIT AND RUN","HIT AND RUN, UNATTENDED VEHICL","3901 HARRISON AVE","",""
"09/17/2013","13:26","213CR0022498","FIRE - OTHER","FIRE - OTHER","3300 BLK HARRISON AVE","",""
"09/17/2013","13:31","213CR0022499","MEDICAL - EMERGENCY","MEDICAL - EMERGENCY","155 W GRANITE","",""
"09/17/2013","14:39","213CR0022500","THEFT","THEFT, ALL OTHERS","3939 HARRISON AVE","",""
"09/17/2013","14:48","213CR0022501","ACCIDENT","CHANGING LANES WHEN UNSAFE","FRONT ST AND UTAH AVE","",""
"09/17/2013","14:53","213CR0022502","ACCIDENT","ACCIDENT","I 15 MM 130 N BND","",""
"09/17/2013","14:54","213CR0022503","WELFARE CHECK","WELFARE CHECK","1960 WALNUT ST APT C","",""
"09/17/2013","15:00","213CR0022504","MEDICAL - EMERGENCY","MEDICAL - EMERGENCY","2409 WASHOE","",""
"09/17/2013","15:06","213CR0022505","ATL","ATL","10 BLK E PLATINUM","",""
"09/17/2013","15:31","213CR0022506","DOMESTIC ABUSE","PFMA - REASONABLE APPREHENSION","2315 SILVER BOW BLVD","",""
"09/17/2013","16:39","213CR0022507","MEDICAL - EMERGENCY","MEDICAL - EMERGENCY","81 W PARK","",""
"09/17/2013","16:51","213CR0022508","MEDICAL - EMERGENCY","MEDICAL - EMERGENCY","1808 THORNTON","",""
"09/17/2013","17:04","213CR0022510","ABANDONED VEHICLE","ABANDONED VEHICLE","1819 GAYLORD","",""
"09/17/2013","18:24","213CR0022511","BUSINESS CHECK","BUSINESS CHECK","1370 HARRISON AVE","",""
"09/17/2013","19:19","213CR0022512","SUSPICIOUS ACTIVITY","SUSPICIOUS ACTIVITY","2500 BLK WALNUT ST","",""
"09/17/2013","19:45","213CR0022513","T/S","T/S","PLATINUM ST AND DAKOTA ST","",""
"09/17/2013","19:53","213CR0022514","WELFARE CHECK","WELFARE CHECK","1125 S MAIN ST #302","",""
"09/17/2013","20:20","213CR0022515","SUICIDE ATTEMPT/THREAT","SUICIDE ATTEMPT/THREAT","************","",""
"09/17/2013","20:22","213CR0022516","DISTURBANCE","DISTURBANCE","811 S COLORADO","",""
"09/17/2013","21:15","213CR0022517","T/S","T/S","UTAH AND FIRST ST","",""
"09/17/2013","21:15","213CR0022518","SUSPICIOUS ACTIVITY","SUSPICIOUS ACTIVITY","27 E GALENA ST","",""
"09/17/2013","21:37","213CR0022519","CITIZEN AID","CITIZEN AID","HARRISON AVE // GEORGE ST","",""
"09/17/2013","21:56","213CR0022520","INFORMATION ONLY","INFORMATION ONLY","","",""
"09/17/2013","22:40","213CR0022521","FIRE - OTHER","FIRE - OTHER","217 N JACKSON ST","",""
"09/17/2013","23:44","213CR0022522","UNKNOWN PROBLEM","UNKNOWN PROBLEM","830 S PLACER ST","",""
"09/17/2013","23:50","213CR0022523","UNWANTED PERSON","UNWANTED PERSON","************","",""
"09/17/2013","23:53","213CR0022524","DISTURBANCE-NOISE","DISTURBANCE-NOISE","163 TRINITY LOOP","",""
"09/18/2013","01:34","213CR0022526","THEFT","THEFT","515 JAMES ST","",""
"09/18/2013","01:41","213CR0022527","ALARM - BURGLARY","ALARM - BURGLARY","************","",""
"09/18/2013","02:04","213CR0022528","DISTURBANCE-NOISE","DISTURBANCE-NOISE","228 E SECOND ST","",""
"09/18/2013","02:42","213CR0022529","SUSPICIOUS ACTIVITY","SUSPICIOUS ACTIVITY","800 BLK WAUKESHA","",""
"09/18/2013","02:58","213CR0022530","MEDICAL - EMERGENCY","MEDICAL - EMERGENCY","2900 HARRISON AVE","",""
"09/18/2013","03:53","213CR0022531","DISTURBANCE","DISTURBANCE","1801 GAYLORD ST","",""
"09/18/2013","04:11","213CR0022532","ALARM - BURGLARY","ALARM - BURGLARY","************","",""
"09/18/2013","04:22","213CR0022533","ALARM - BURGLARY","ALARM - BURGLARY","************","",""
"09/18/2013","04:53","213CR0022534","ALARM - BURGLARY","ALARM - BURGLARY","************","",""
"09/18/2013","06:43","213CR0022536","SUSPICIOUS ACTIVITY","SUSPICIOUS ACTIVITY","2401 CONTINENTAL DR","",""
"09/18/2013","06:58","213CR0022538","LED BUSINESS","LED BUSINESS","708 W PARK","",""
"09/18/2013","07:08","213CR0022539","MEDICAL - EMERGENCY","MEDICAL - EMERGENCY","2907 HANSON RD","",""

Subcategories

Sunday the 20th. Affiliate Marketing.
Copyright 2012

©